伽利略0215星导航星座 (GSAT0215 (GALILEO 19))

导读

GALILEO 19 (2C5)是欧洲空间局(ESA)伽利略全球卫星导航系统的卫星,于2017年12月12日发射升空。它作为伽利略系统的组网卫星,承担着为全球用户提供高精度定位、导航与授时服务的任务,助力欧洲实现自主导航能力,提升全球卫星导航系统的覆盖精度与服务可靠性,推动全球导航领域多元化发展。

基本信息
目录编号:
43055
目录名称:
GALILEO 19 (2C5)
国际标识:
2017-079A
轨道中心:
EARTH
卫星名称:
伽利略0215星
卫星全名:
伽利略0215星导航星座 (GSAT0215 (GALILEO 19))
卫星状态:
在轨 (已飞行3195 天)
发射日期:
2017-12-12 UTC
国别 :
(ESA)
星等 :
--
该卫星已列入 空间交会检测服务 Space Conjunction Data Service (SCDS) ,当前飞行风险评估等级: 无高风险
轨道信息
数据来源 国际轨道数据 AOE轨道数据
星历时间 2026-09-10T23:45:09+0800
21小时前
查看轨道信息
2026-09-05T10:00:00+0800
6天前
查看轨道信息
半长轴 29600.344km 29600.321km
偏心率 0.000336 0.0003501
轨道倾角 55.054° 55.056°
近地点辐角 281.058° 279.200°
升交点赤经 219.156° 219.309°
平近点角 78.852° 260.413°
近地点 23212.261km 23211.82km
远地点 23232.153km 23232.548km
周期 844.705分钟 844.704分钟
每日圈数 1.704738 1.70474
详细信息
平衡模式:
三轴稳定
覆盖范围:
全球
运营商:
欧盟空间计划局
运营商所在国:
法国大都会
使用方式:
暂无
卫星简介
伽利略定位系统(Galileo)是一个全球导航卫星系统,于2016年投入使用由欧盟通过ESA创建,由欧盟空间计划局(EUSPA)运营。该系统有两个地面操控站,并且在高纬度地区提供比其他系统更好的定位服务。该卫星仍在工作。
2D轨道图
3D轨道图
轨道高度分析图
轨道倾角分析图
轨道综合分析图
查看轨道综合分析图
与全量物体交会距离演化趋势
与全量物体交会风险概率演化趋势